Погода в Буденновске

Хотите узнать прогноз погоды в Буденновске? Тогда Вам сюда: Погода в Буденновске

Поиск расширенной информации на нашем сайте:

Полезная информация:

Новости сайта



14.11.2019
Обновлён Долгосрочный прогноз погоды по России и другим странам хСССР на ноябрь-декабрь 2019 года.
Опубликованы прогностические карты: Предварительный прогноз на декабрь 2019 года, Предварительный прогноз на январь 2020 года, Предварительная схема синоптических процессов на декабрь 2019 г..

11.11.2019
Обновлены Долгосрочный прогноз погоды по России и другим странам хСССР на ноябрь-декабрь 2019 года и Предварительный прогноз на зиму 2019/2020 годов

04.11.2019
Опубликован Долгосрочный прогноз погоды по России и другим странам хСССР на ноябрь 2019 года
Сравнение прогнозируемой аномалии приземной температуры воздуха на ноябрь 2019 года по разным моделям
Предварительный прогноз на зиму 2019/2020 года




Погода в Буденновске - сегодня

Время (UTC), дата Ветер
(°,м/с) 
Видим.   Явления Облачность Т
(°С)
Тd
(°С)
f(%) Тe
(°С)
Pmin
(гПа)
dP
(гПа)
Po
(мм)
O2
(г/м3)
Тmin Tmax R s Состояние
почвы
21 17.11.19 100 (В) 10 км    10/0 средняя 
[Ac und]
+6.2 +4 86 +5  1030.8  -0.4  761  299           
00 18.11.19 090 (В) 10 км    10/0 средняя 
[Ac und]
+6.4 +3.9 84 +6  1030.4  -0.3  760  299           
03 18.11.19 090 (В) 4000 м  дымка  10/0 средняя 
[Ac und]
+4.9 +3.1 88 +5  1029.9  -0.3  760  300  +4.9         
06 18.11.19 080 (В) 4000 м  дымка  10/10 600 м 
[Sc]
+5.4 +3.5 88 +5  1030.7  0.8  760  300  +4.6         
09 18.11.19 100 (В) 5-10{10}  10 км    10/10 300 м 
[St]
+9.3 +5 74 +8  1029.3  -1.1  760  295           
12 18.11.19 110 (В) 4{10}  10 км    3/3 600 м 
[Cu hum]
+12.4 +5 61 +12  1027.6  -1.5  758  292           
15 18.11.19 110 (В) 20000 м    ясно 
+8.8 +4 72 +9  1027.8  758  295    +12.4       
18 18.11.19 080 (В) 4000 м  дымка  ясно 
+5.4 +3.5 88 +4  1027.9  -0.1  758  299           
21 18.11.19 050 (СВ) 4000 м  дымка  10/10 600 м 
[Sc]
+3.9 +3.1 95 +5  1027.7  -0.3  758  301           
00 19.11.19 080 (В) 4000 м  дымка  10/10 600 м 
[Sc]
+5.1 +4.1 93 +6  1027.4  -0.2  758  299           
03 19.11.19 070 (В) 4000 м  дымка  10/10 600 м 
[Sc]
+5.6 +4.4 92 +6  1027.6  0.2  758  299  +3         
06 19.11.19 080 (В) 4000 м  дымка  10/10 600 м 
[Sc]
+5.8 +3.7 86 +6  1028.2  0.6  759  299           
09 19.11.19 070 (В) 10 км    10/10 600 м 
[Sc]
+6.8 +3.3 78 +7  1027.8  -0.3  758  298           
12 19.11.19 080 (В) 10 км    10/10 600 м 
[Sc]
+7.4 +2.8 73 +7  1027.3  -0.5  758  297           
15 19.11.19 070 (В) 10 км    10/10 600 м 
[Sc]
+6.3 +2.3 76 +5  1027.9  0.5  758  298    +7.8       
18 19.11.19 080 (В) 20000 м    10/10 600 м 
[Sc]
+5.5 +1.4 75 +4  1028.3  0.3  759  299           
21 19.11.19 080 (В) 10 км    10/10 600 м 
[Sc]
+3.7 +0.2 78 +2  1028.5  0.1  759  302           
00 20.11.19 070 (В) 10 км    10/10 600 м 
[Sc]
+2.3 -0.3 83 +1  1029.1  0.5  759  303           
03 20.11.19 070 (В) 4000 м  дымка  10/10 600 м 
[Sc]
+1.8 -0.2 87 1029.6  0.4  759  304  +1.8         
06 20.11.19 080 (В) 4000 м  дымка  10/10 600 м 
[Sc]
-0.3 -2.3 86 -1  1031.1  1.4  760  307  -0.3         
09 20.11.19 070 (В) 4000 м  дымка  10/10 600 м 
[Sc]
-1.4 -3.6 85 -3  1031.3  0.1  761  308           
12 20.11.19 080 (В) 10 км    10/10 600 м 
[Sc]
+1.2 -2.2 78 -1  1031.2  761  305           
15 20.11.19 070 (В) 4000 м  слаб. ливневой дождь со снегом  10/10 600 м кучево-дожд. 
[Cb calv]
+0.6 -0.1 95 1032.1  0.9  761  306    +1.8  0.1     
18 20.11.19 060 (СВ) 2000 м  дымка{ливн. осадки}  10/10 600 м кучево-дожд. 
[Cb calv]
+1.2 +0.1 92 1032.5  0.4  762  305           
21 20.11.19 060 (СВ) 4{12}  2000 м  слаб. крупа{ливн. осадки}  10/10 600 м кучево-дожд. 
[Cb calv]
-1.5 -2.8 91 -4  1033.7  762  309           
Время (UTC), дата Ветер
(°,м/с) 
Видим.   Явления Облачность Т
(°С)
Тd
(°С)
f(%) Тe
(°С)
Pmin
(гПа)
dP
(гПа)
Po
(мм)
O2
(г/м3)
Тmin Tmax R s Состояние
почвы

Для получения пояснительной информации подведите курсор к названию столбца.

ПОГОДА в Буденновске - архив

Всё, что Вы хотите узнать о погоде в Буденновске - удобно и подробно!

Выберите нужную дату (начиная с 1 января 2019* года) и нажмите кнопку "Найти".
Будут отображены архивные сводки погоды по пункту Буденновск, начиная с указанной даты.


Отображать данные в формате CSV (для использования в таблицах Excel)


Внимание! Наш архив погоды предназначен исключительно для личного некоммерческого использования в познавательных целях. Если Вам необходимы официальные справки о состоянии погоды (для производственных, юридических, коммерческих и т.п. целей), обращайтесь в органы Росгидромета.

*Примечание: данная дата относится к архиву по метеостанциям СССР (Россия, СНГ, Балтия).
Архив по метеостанциям Зарубежной Европы и Азии (кроме Китая) хранится 10 дней, по другим регионам земного шара (Китай, Африка, Америка, Австралия, Океания) - 1 день.

Буденновск - район местоположения метеостанции


Название, широта, долгота, высота метеостанции:
Буденновск (Прикумск) 44.8°ш. 44.1°д. 136 м над ур. моря [Российская Федерация]

Дополнительная информация

В oтличие oт бoльшинства пoгoдных сайтoв мы публикуем пoдрoбную метеoинфoрмацию в детальнoм прoфессиoнальнoм фoрмате.

Характеристики температуры и влажнoсти вoздуха измеряются на высoте 2 м в тени вдали oт зданий и деревьев.
Скoрoсть ветра измеряется на высoте 10 м (на урoвне рoста челoвека скoрoсть ветра ниже в 1.5-2 раза). Если метеoстанция нахoдится в гoрoде или в лесу, тo скoрoсть ветра занижена на 2-4 м/с пo сравнению с oткрытым местoм. Скoрoсть ветра над акватoриями крупных рек и oзёр, а также на вершинах хoлмoв на 2-5 м/с выше, чем в oбычных услoвиях.
Атмoсфернoе давление в разных тoчках местнoсти мoжет значительнo oтличаться oт давления на метеoстанции, в зависимoсти oт услoвий рельефа (при пoдъёме на 10 м давление пoнижается примернo на 1 мм рт.ст.).